URO900 EGHH-ZWWW

Flight info

Callsign URO900
Flight time N/A
Altitude 35000
Route GWC N16 OTSID DCT PAWDE P2 DVR UL9 KONAN UL607 MATUG DCT GUBAX DCT OSDUR DCT OSBIT L984 KOMIB DCT TONSU Z650 NOGRA DCT ETVIS DCT PEMEL DCT NELPA DCT TABEM DCT LIKSA DCT MAVOR DCT TURIS DCT PATAK DCT NIPUR DCT ADUKU DCT BUKAN DCT RUSAG DCT LEBAT DCT DENAK DCT DIRAL DCT FTS DCT VAKIS DCT UDROS UM859 KARDE UN644 ROLIN N644 LAGAS/N0475F370 M747 SUBUT T923 ERLEV DCT NIJAT DCT METKA B476 DARVA/K0883F370 T898 OGOLI N193 SR DCT TISIB L141 KAMUD/K0882S1130 A468 XKC B215 EPDAG EPDAG9Z
Aircraft A346/H-SDE2E3FGHIJ3J4J5M1RWXY/LB1D1

Departure

Time N/A
Airport Bournemouth Airport (EGHH)

Arrival

Time 2026-04-27 18:59
Airport Ürümqi Tianshan International Airport (ZWWW)
Time Latitude Longitude Altitude Speed Heading
2026-04-27 14:10 41.90108 37.20568 35252 ft 511 kts 91°
2026-04-27 14:11 41.90048 37.25334 35249 ft 510 kts 91°
2026-04-27 14:11 41.89919 37.34867 35261 ft 511 kts 91°
2026-04-27 14:12 41.89771 37.44361 35255 ft 511 kts 91°
2026-04-27 14:12 41.89606 37.53986 35258 ft 511 kts 91°
2026-04-27 14:13 41.89433 37.63539 35257 ft 510 kts 91°
2026-04-27 14:13 41.89255 37.73006 35258 ft 510 kts 91°
2026-04-27 14:14 41.89069 37.82535 35256 ft 509 kts 91°
2026-04-27 14:14 41.88876 37.92056 35256 ft 510 kts 92°
2026-04-27 14:15 41.88673 38.01611 35248 ft 511 kts 92°
2026-04-27 14:15 41.88460 38.11141 35255 ft 510 kts 92°
2026-04-27 14:16 41.88241 38.20665 35251 ft 509 kts 92°
2026-04-27 14:16 41.88015 38.30200 35253 ft 509 kts 92°
2026-04-27 14:17 41.87781 38.39726 35254 ft 509 kts 92°
2026-04-27 14:17 41.87541 38.49223 35245 ft 506 kts 92°
2026-04-27 14:18 41.87295 38.58599 35248 ft 505 kts 92°
2026-04-27 14:18 41.87039 38.68019 35248 ft 505 kts 92°
2026-04-27 14:19 41.86776 38.77446 35247 ft 504 kts 92°
2026-04-27 14:19 41.86505 38.86872 35245 ft 504 kts 92°
2026-04-27 14:20 41.86229 38.96267 35244 ft 502 kts 93°
2026-04-27 14:20 41.85946 39.05579 35248 ft 502 kts 93°
2026-04-27 14:21 41.85654 39.14956 35249 ft 503 kts 93°
2026-04-27 14:21 41.85354 39.24349 35249 ft 503 kts 93°
2026-04-27 14:22 41.85046 39.33722 35247 ft 501 kts 93°
2026-04-27 14:22 41.84733 39.43067 35246 ft 501 kts 93°
2026-04-27 14:23 41.84411 39.52422 35242 ft 501 kts 93°
2026-04-27 14:23 41.84082 39.61763 35238 ft 501 kts 93°
2026-04-27 14:24 41.83746 39.71107 35236 ft 501 kts 93°
2026-04-27 14:24 41.83402 39.80442 35232 ft 499 kts 93°
2026-04-27 14:25 41.83054 39.89701 35238 ft 499 kts 93°
2026-04-27 14:25 41.82698 39.99007 35231 ft 499 kts 94°
2026-04-27 14:26 41.82332 40.08321 35222 ft 499 kts 94°
2026-04-27 14:26 41.81959 40.17620 35220 ft 498 kts 94°
2026-04-27 14:27 41.81579 40.26892 35224 ft 497 kts 94°
2026-04-27 14:27 41.81191 40.36166 35220 ft 498 kts 94°
2026-04-27 14:28 41.80796 40.45443 35222 ft 498 kts 94°
2026-04-27 14:28 41.80393 40.54731 35219 ft 498 kts 94°
2026-04-27 14:29 41.79983 40.63999 35221 ft 498 kts 94°
2026-04-27 14:29 41.79546 40.73284 35217 ft 498 kts 94°
2026-04-27 14:30 41.79092 40.82501 35221 ft 498 kts 95°
2026-04-27 14:30 41.78630 40.91779 35217 ft 499 kts 95°
2026-04-27 14:31 41.78161 41.01054 35217 ft 497 kts 95°
2026-04-27 14:31 41.77685 41.10321 35219 ft 497 kts 95°
2026-04-27 14:32 41.77202 41.19587 35225 ft 497 kts 95°
2026-04-27 14:32 41.76712 41.28841 35234 ft 497 kts 95°
2026-04-27 14:33 41.76216 41.38086 35233 ft 496 kts 95°
2026-04-27 14:33 41.75717 41.47261 35243 ft 496 kts 95°
2026-04-27 14:34 41.75204 41.56504 35246 ft 496 kts 95°
2026-04-27 14:34 41.74686 41.65739 35243 ft 496 kts 95°
2026-04-27 14:35 41.74160 41.74971 35243 ft 496 kts 95°
2026-04-27 14:35 41.73630 41.84192 35241 ft 495 kts 96°
2026-04-27 14:36 41.73090 41.93401 35236 ft 495 kts 96°
2026-04-27 14:36 41.72544 42.02595 35233 ft 495 kts 96°
2026-04-27 14:37 41.71989 42.11815 35219 ft 496 kts 96°
2026-04-27 14:37 41.71424 42.21037 35216 ft 496 kts 96°
2026-04-27 14:38 41.70854 42.30250 35213 ft 496 kts 97°
2026-04-27 14:38 41.70274 42.39462 35204 ft 496 kts 97°
2026-04-27 14:39 41.69688 42.48669 35194 ft 496 kts 97°
2026-04-27 14:39 41.69099 42.57826 35195 ft 496 kts 97°
2026-04-27 14:40 41.68502 42.67044 35172 ft 496 kts 97°
2026-04-27 14:40 41.67894 42.76249 35175 ft 495 kts 97°
2026-04-27 14:41 41.67278 42.85441 35162 ft 495 kts 97°
2026-04-27 14:41 41.66653 42.94643 35153 ft 496 kts 97°
2026-04-27 14:42 41.66021 43.03841 35148 ft 495 kts 97°
2026-04-27 14:42 41.65383 43.13032 35147 ft 495 kts 98°
2026-04-27 14:43 41.64739 43.22210 35150 ft 496 kts 98°
2026-04-27 14:43 41.64088 43.31360 35149 ft 496 kts 98°
2026-04-27 14:44 41.63426 43.40565 35157 ft 497 kts 98°
2026-04-27 14:44 41.62759 43.49793 35144 ft 498 kts 98°
2026-04-27 14:45 41.62079 43.59019 35138 ft 497 kts 99°
2026-04-27 14:45 41.61404 43.68173 35139 ft 498 kts 99°
2026-04-27 14:46 41.60714 43.77400 35118 ft 499 kts 99°
2026-04-27 14:46 41.60017 43.86643 35114 ft 499 kts 99°
2026-04-27 14:47 41.59312 43.95866 35106 ft 498 kts 99°
2026-04-27 14:47 41.58602 44.05086 35091 ft 498 kts 99°
2026-04-27 14:48 41.57880 44.14299 35079 ft 498 kts 99°
2026-04-27 14:48 41.55955 44.27864 35049 ft 492 kts 109°
2026-04-27 14:49 41.53879 44.36560 35054 ft 490 kts 112°
2026-04-27 14:49 41.51739 44.45151 35048 ft 490 kts 112°
2026-04-27 14:50 41.49585 44.53791 35042 ft 490 kts 112°
2026-04-27 14:50 41.47427 44.62436 35022 ft 490 kts 112°
2026-04-27 14:51 41.45266 44.71070 35025 ft 490 kts 112°
2026-04-27 14:51 41.43467 44.78234 35026 ft 490 kts 112°
2026-04-27 14:52 41.40943 44.88253 35001 ft 490 kts 112°
2026-04-27 14:52 41.38766 44.96865 35009 ft 490 kts 112°
2026-04-27 14:53 41.36579 45.05472 35003 ft 490 kts 112°
2026-04-27 14:53 41.34382 45.14077 35000 ft 490 kts 112°
2026-04-27 14:54 41.32552 45.21220 34994 ft 490 kts 112°
2026-04-27 14:54 41.30340 45.29825 34990 ft 491 kts 112°
2026-04-27 14:55 41.28120 45.38432 34976 ft 491 kts 113°
2026-04-27 14:55 41.25532 45.48433 34975 ft 492 kts 113°
2026-04-27 14:56 41.23659 45.55647 34976 ft 492 kts 113°
2026-04-27 14:56 41.21417 45.64248 34959 ft 492 kts 113°
2026-04-27 14:57 41.19175 45.72789 34959 ft 492 kts 113°
2026-04-27 14:57 41.16911 45.81374 34938 ft 492 kts 113°
2026-04-27 14:58 41.14632 45.89983 34947 ft 495 kts 113°
2026-04-27 14:58 41.12342 45.98613 34946 ft 495 kts 113°
2026-04-27 14:59 41.10049 46.07229 34940 ft 495 kts 113°
2026-04-27 14:59 41.07742 46.15868 34917 ft 496 kts 113°
2026-04-27 15:00 41.05428 46.24500 34926 ft 497 kts 113°
2026-04-27 15:00 41.03120 46.33095 34920 ft 497 kts 113°
2026-04-27 15:01 41.00816 46.41726 34912 ft 496 kts 113°
2026-04-27 15:01 40.98510 46.50344 34900 ft 495 kts 114°
2026-04-27 15:02 40.96200 46.58938 34900 ft 495 kts 114°
2026-04-27 15:02 40.93879 46.67537 34900 ft 495 kts 114°
2026-04-27 15:03 40.91616 46.76151 34893 ft 496 kts 111°
2026-04-27 15:03 40.89933 46.85039 34896 ft 499 kts 104°
2026-04-27 15:04 40.88991 46.94175 34897 ft 502 kts 99°
2026-04-27 15:04 40.88341 47.03308 34898 ft 502 kts 98°
2026-04-27 15:05 40.87679 47.12507 34879 ft 501 kts 98°
2026-04-27 15:05 40.87000 47.21665 34889 ft 499 kts 98°
2026-04-27 15:06 40.86317 47.30802 34901 ft 499 kts 98°
2026-04-27 15:06 40.85624 47.39949 34917 ft 499 kts 98°
2026-04-27 15:07 40.84922 47.49093 34937 ft 499 kts 98°
2026-04-27 15:07 40.84298 47.58235 34930 ft 499 kts 97°
2026-04-27 15:08 40.83753 47.67391 34944 ft 499 kts 97°
2026-04-27 15:08 40.83197 47.76541 34956 ft 498 kts 97°
2026-04-27 15:09 40.82630 47.85619 34924 ft 498 kts 97°
2026-04-27 15:09 40.82049 47.94755 34954 ft 498 kts 97°
2026-04-27 15:10 40.81461 48.03881 34947 ft 498 kts 97°
2026-04-27 15:10 40.80865 48.13020 34969 ft 499 kts 97°
2026-04-27 15:11 40.80260 48.22167 34960 ft 499 kts 97°
2026-04-27 15:11 40.79652 48.31250 34969 ft 499 kts 98°
2026-04-27 15:12 40.79029 48.40447 34950 ft 499 kts 98°
2026-04-27 15:12 40.78402 48.49599 34964 ft 500 kts 98°
2026-04-27 15:13 40.77773 48.58690 34972 ft 500 kts 98°
2026-04-27 15:13 40.77132 48.67851 34967 ft 500 kts 98°
2026-04-27 15:14 40.76482 48.77007 34986 ft 500 kts 98°
2026-04-27 15:14 40.75826 48.86154 34974 ft 501 kts 98°
2026-04-27 15:15 40.75162 48.95321 34980 ft 502 kts 98°
2026-04-27 15:15 40.74489 49.04492 34986 ft 502 kts 98°
2026-04-27 15:16 40.73813 49.13620 34977 ft 502 kts 98°
2026-04-27 15:16 40.73127 49.22795 34985 ft 502 kts 98°
2026-04-27 15:17 40.72703 49.32021 34978 ft 503 kts 96°
2026-04-27 15:17 40.72348 49.41259 34980 ft 503 kts 96°
2026-04-27 15:18 40.71989 49.50430 34983 ft 503 kts 96°
2026-04-27 15:18 40.71617 49.59655 34983 ft 503 kts 96°
2026-04-27 15:19 40.71236 49.68872 34979 ft 502 kts 96°
2026-04-27 15:19 40.70848 49.78081 34973 ft 502 kts 96°
2026-04-27 15:20 40.70453 49.87288 34977 ft 502 kts 96°
2026-04-27 15:20 40.70051 49.96491 34978 ft 502 kts 96°
2026-04-27 15:21 40.69642 50.05684 34971 ft 502 kts 96°
2026-04-27 15:21 40.69226 50.14867 34975 ft 501 kts 96°
2026-04-27 15:22 40.68803 50.24041 34969 ft 500 kts 96°
2026-04-27 15:22 40.68376 50.33159 34972 ft 500 kts 96°
2026-04-27 15:23 40.68009 50.42332 34968 ft 501 kts 94°
2026-04-27 15:23 40.68227 50.51543 34969 ft 503 kts 89°
2026-04-27 15:24 40.68667 50.60756 34963 ft 503 kts 89°
2026-04-27 15:24 40.69104 50.69969 34963 ft 503 kts 89°
2026-04-27 15:25 40.69526 50.79189 34963 ft 503 kts 89°
2026-04-27 15:25 40.69938 50.88420 34967 ft 503 kts 89°
2026-04-27 15:26 40.70341 50.97595 34959 ft 503 kts 89°
2026-04-27 15:26 40.70736 51.06818 34954 ft 503 kts 89°
2026-04-27 15:27 40.71125 51.16052 34958 ft 503 kts 89°
2026-04-27 15:27 40.71508 51.25283 34955 ft 504 kts 89°
2026-04-27 15:28 40.71881 51.34476 34947 ft 503 kts 89°
2026-04-27 15:28 40.72249 51.43701 34947 ft 503 kts 89°
2026-04-27 15:29 40.73031 51.52900 34943 ft 505 kts 82°
2026-04-27 15:29 40.74448 51.62006 34947 ft 506 kts 79°
2026-04-27 15:30 40.75963 51.71087 34943 ft 507 kts 79°
2026-04-27 15:30 40.77466 51.80193 34941 ft 507 kts 79°
2026-04-27 15:31 40.78956 51.89316 34941 ft 507 kts 80°
2026-04-27 15:31 40.80435 51.98436 34936 ft 507 kts 80°
2026-04-27 15:32 40.81894 52.07498 34936 ft 507 kts 79°
2026-04-27 15:32 40.83368 52.16683 34933 ft 507 kts 79°
2026-04-27 15:33 40.84815 52.25746 34929 ft 507 kts 80°
2026-04-27 15:33 40.86263 52.34871 34934 ft 507 kts 79°
2026-04-27 15:34 40.87705 52.44004 34930 ft 507 kts 79°
2026-04-27 15:34 40.89141 52.53149 34930 ft 507 kts 80°
2026-04-27 15:35 40.90315 52.62351 34928 ft 506 kts 85°
2026-04-27 15:35 40.90823 52.71634 34928 ft 505 kts 88°
2026-04-27 15:36 40.91206 52.80919 34929 ft 505 kts 89°
2026-04-27 15:36 40.91590 52.90212 34914 ft 505 kts 88°
2026-04-27 15:37 40.91976 52.99503 34919 ft 505 kts 88°
2026-04-27 15:37 40.92351 53.08732 34919 ft 505 kts 88°
2026-04-27 15:38 40.92716 53.18044 34920 ft 506 kts 88°
2026-04-27 15:38 40.93068 53.27364 34918 ft 506 kts 88°
2026-04-27 15:39 40.93409 53.36612 34915 ft 506 kts 89°
2026-04-27 15:39 40.93746 53.45917 34916 ft 506 kts 88°
2026-04-27 15:40 40.94075 53.55239 34915 ft 507 kts 88°
2026-04-27 15:40 40.94400 53.64580 34914 ft 507 kts 88°
2026-04-27 15:41 40.94718 53.73927 34911 ft 507 kts 89°
2026-04-27 15:41 40.95026 53.83260 34911 ft 507 kts 89°
2026-04-27 15:42 40.95325 53.92598 34907 ft 508 kts 88°
2026-04-27 15:42 40.95619 54.01895 34906 ft 508 kts 88°
2026-04-27 15:43 40.95906 54.11249 34894 ft 508 kts 89°
2026-04-27 15:43 40.96186 54.20605 34903 ft 508 kts 89°
2026-04-27 15:44 40.96457 54.29958 34910 ft 508 kts 89°
2026-04-27 15:44 40.96720 54.39276 34898 ft 508 kts 89°
2026-04-27 15:45 40.96936 54.47135 34900 ft 508 kts 89°
2026-04-27 15:45 40.97185 54.56433 34899 ft 508 kts 89°
2026-04-27 15:46 40.97425 54.65788 34901 ft 508 kts 89°
2026-04-27 15:46 40.97663 54.75167 34890 ft 509 kts 89°
2026-04-27 15:47 40.97892 54.84542 34902 ft 509 kts 89°
2026-04-27 15:47 40.98108 54.93927 34906 ft 509 kts 89°
2026-04-27 15:48 40.98309 55.03323 34906 ft 509 kts 89°
2026-04-27 15:49 40.98597 55.17361 34904 ft 510 kts 89°
2026-04-27 15:49 40.98783 55.26750 34919 ft 510 kts 89°
2026-04-27 15:50 40.98960 55.36144 34896 ft 510 kts 89°
2026-04-27 15:50 40.99130 55.45551 34919 ft 509 kts 89°
2026-04-27 15:51 40.99293 55.54947 34913 ft 509 kts 89°
2026-04-27 15:51 40.99448 55.64340 34922 ft 509 kts 89°
2026-04-27 15:52 40.99595 55.73740 34919 ft 509 kts 89°
2026-04-27 15:52 40.99739 55.83065 34924 ft 510 kts 89°
2026-04-27 15:53 40.99891 55.92455 34921 ft 510 kts 89°
2026-04-27 15:53 41.00035 56.01846 34917 ft 510 kts 89°
2026-04-27 15:54 41.00172 56.11254 34912 ft 510 kts 89°
2026-04-27 15:54 41.00300 56.20654 34914 ft 510 kts 90°
2026-04-27 15:55 41.00423 56.30063 34922 ft 510 kts 90°
2026-04-27 15:55 41.00536 56.39475 34924 ft 510 kts 90°
2026-04-27 15:56 41.00712 56.48822 34926 ft 510 kts 87°
2026-04-27 15:56 41.01517 56.58176 34922 ft 511 kts 82°
2026-04-27 15:57 41.02638 56.67495 34908 ft 511 kts 81°
2026-04-27 15:57 41.03758 56.76804 34916 ft 511 kts 82°
2026-04-27 15:58 41.04865 56.86141 34926 ft 511 kts 82°
2026-04-27 15:58 41.05960 56.95460 34924 ft 511 kts 82°
2026-04-27 15:59 41.07036 57.04708 34922 ft 511 kts 82°
2026-04-27 15:59 41.08112 57.14037 34924 ft 510 kts 82°
2026-04-27 16:00 41.09180 57.23356 34925 ft 510 kts 82°
2026-04-27 16:00 41.10243 57.32672 34928 ft 509 kts 83°
2026-04-27 16:01 41.11293 57.41975 34928 ft 509 kts 83°
2026-04-27 16:01 41.12334 57.51274 34929 ft 509 kts 83°
2026-04-27 16:02 41.13369 57.60578 34918 ft 509 kts 83°
2026-04-27 16:02 41.14398 57.69870 34927 ft 507 kts 83°
2026-04-27 16:03 41.15413 57.79132 34927 ft 507 kts 83°
2026-04-27 16:03 41.16421 57.88397 34930 ft 507 kts 83°
2026-04-27 16:04 41.17418 57.97615 34935 ft 507 kts 83°
2026-04-27 16:04 41.18410 58.06882 34936 ft 507 kts 83°
2026-04-27 16:05 41.19394 58.16157 34936 ft 507 kts 83°
2026-04-27 16:05 41.20370 58.25436 34936 ft 507 kts 83°
2026-04-27 16:06 41.21345 58.34721 34941 ft 507 kts 84°
2026-04-27 16:06 41.22308 58.44008 34938 ft 507 kts 84°
2026-04-27 16:07 41.23263 58.53297 34941 ft 507 kts 84°
2026-04-27 16:07 41.24212 58.62593 34937 ft 506 kts 84°
2026-04-27 16:08 41.25147 58.71822 34934 ft 506 kts 84°
2026-04-27 16:08 41.26080 58.81100 34945 ft 506 kts 84°
2026-04-27 16:09 41.27005 58.90385 34958 ft 506 kts 84°
2026-04-27 16:09 41.28379 59.04312 34958 ft 506 kts 84°
2026-04-27 16:10 41.30187 59.22901 34955 ft 506 kts 84°
2026-04-27 16:11 41.31517 59.36792 34957 ft 506 kts 84°
2026-04-27 16:12 41.32838 59.50741 34960 ft 505 kts 84°
2026-04-27 16:13 41.33999 59.64676 34956 ft 503 kts 89°
2026-04-27 16:13 41.33790 59.78588 34964 ft 499 kts 95°
2026-04-27 16:14 41.32897 59.97027 34963 ft 498 kts 95°
2026-04-27 16:15 41.32009 60.15385 34963 ft 497 kts 95°
2026-04-27 16:16 41.31110 60.33808 34964 ft 498 kts 95°
2026-04-27 16:17 41.31139 60.52256 34969 ft 499 kts 86°
2026-04-27 16:18 41.32135 60.70735 34971 ft 502 kts 86°
2026-04-27 16:19 41.32619 60.80017 34973 ft 502 kts 86°
2026-04-27 16:20 41.33553 60.98585 34975 ft 503 kts 86°
2026-04-27 16:21 41.34239 61.12527 34976 ft 503 kts 86°
2026-04-27 16:22 41.35124 61.31139 34976 ft 504 kts 86°
2026-04-27 16:22 41.35772 61.45134 34983 ft 504 kts 86°
2026-04-27 16:23 41.36399 61.59078 34984 ft 504 kts 86°
2026-04-27 16:24 41.36811 61.68417 34987 ft 504 kts 86°
2026-04-27 16:25 41.37611 61.87057 34981 ft 502 kts 86°
2026-04-27 16:26 41.38379 62.05566 34985 ft 500 kts 86°
2026-04-27 16:27 41.39118 62.24107 34986 ft 500 kts 87°
2026-04-27 16:28 41.39998 62.47236 34984 ft 500 kts 87°
2026-04-27 16:29 41.40891 62.70423 34989 ft 500 kts 88°
2026-04-27 16:30 41.41587 62.88972 34994 ft 500 kts 88°
2026-04-27 16:31 41.42411 63.12107 34990 ft 500 kts 88°
2026-04-27 16:32 41.42887 63.26036 34993 ft 501 kts 88°
2026-04-27 16:33 41.43345 63.39970 34996 ft 501 kts 88°
2026-04-27 16:33 41.43643 63.49267 34984 ft 501 kts 88°
2026-04-27 16:34 41.43885 63.57002 34995 ft 501 kts 88°
2026-04-27 16:34 41.44166 63.66283 34997 ft 501 kts 89°
2026-04-27 16:35 41.44425 63.75571 34997 ft 501 kts 89°
2026-04-27 16:36 41.44797 63.89528 34994 ft 501 kts 89°
2026-04-27 16:36 41.45038 63.98839 34998 ft 501 kts 89°
2026-04-27 16:37 41.45272 64.08133 34988 ft 502 kts 89°
2026-04-27 16:37 41.45499 64.17451 35001 ft 502 kts 89°
2026-04-27 16:38 41.45718 64.26709 34998 ft 502 kts 89°
2026-04-27 16:38 41.45931 64.36030 34990 ft 502 kts 89°
2026-04-27 16:39 41.46137 64.45345 34997 ft 502 kts 89°
2026-04-27 16:39 41.46334 64.54665 35001 ft 501 kts 89°
2026-04-27 16:40 41.46523 64.63982 34991 ft 501 kts 89°
2026-04-27 16:40 41.46705 64.73294 34989 ft 501 kts 89°
2026-04-27 16:41 41.46879 64.82604 34991 ft 501 kts 89°
2026-04-27 16:41 41.47046 64.91856 34990 ft 501 kts 89°
2026-04-27 16:42 41.47205 65.01170 34984 ft 502 kts 90°
2026-04-27 16:42 41.47358 65.10499 34985 ft 502 kts 90°
2026-04-27 16:43 41.47503 65.19834 34980 ft 502 kts 90°
2026-04-27 16:43 41.47641 65.29154 34983 ft 502 kts 90°
2026-04-27 16:44 41.47771 65.38466 34982 ft 502 kts 90°
2026-04-27 16:44 41.47893 65.47788 34982 ft 502 kts 90°
2026-04-27 16:45 41.48009 65.57113 34985 ft 502 kts 90°
2026-04-27 16:45 41.48117 65.66380 34978 ft 503 kts 90°
2026-04-27 16:46 41.48218 65.75721 34982 ft 503 kts 90°
2026-04-27 16:46 41.48283 65.85061 34982 ft 503 kts 91°
2026-04-27 16:47 41.48300 65.94398 34976 ft 503 kts 91°
2026-04-27 16:47 41.48313 66.03736 34979 ft 503 kts 91°
2026-04-27 16:48 41.48322 66.13088 34977 ft 503 kts 91°
2026-04-27 16:48 41.48326 66.22434 34975 ft 503 kts 91°
2026-04-27 16:49 41.48318 66.36423 34976 ft 504 kts 91°
2026-04-27 16:49 41.48304 66.45778 34974 ft 504 kts 91°
2026-04-27 16:50 41.48261 66.55138 34974 ft 503 kts 92°
2026-04-27 16:50 41.47675 66.64452 34976 ft 503 kts 99°
2026-04-27 16:51 41.46426 66.73643 34977 ft 502 kts 102°
2026-04-27 16:51 41.45072 66.82803 34974 ft 502 kts 103°
2026-04-27 16:52 41.43719 66.91961 34963 ft 503 kts 103°
2026-04-27 16:52 41.42364 67.01123 34969 ft 503 kts 103°
2026-04-27 16:53 41.41002 67.10288 34970 ft 503 kts 103°
2026-04-27 16:53 41.39633 67.19450 34968 ft 503 kts 103°
2026-04-27 16:54 41.38264 67.28563 34965 ft 504 kts 103°
2026-04-27 16:54 41.36878 67.37741 34963 ft 505 kts 103°
2026-04-27 16:55 41.35487 67.46910 34960 ft 505 kts 103°
2026-04-27 16:55 41.34086 67.56086 34955 ft 505 kts 103°
2026-04-27 16:56 41.32675 67.65277 34959 ft 506 kts 103°
2026-04-27 16:56 41.31255 67.74470 34957 ft 506 kts 103°
2026-04-27 16:57 41.29830 67.83653 34955 ft 506 kts 103°
2026-04-27 16:57 41.28447 67.92792 34955 ft 507 kts 101°
2026-04-27 16:58 41.27515 68.02105 34943 ft 508 kts 98°
2026-04-27 16:58 41.26692 68.11460 34948 ft 509 kts 98°
2026-04-27 16:59 41.25859 68.20819 34947 ft 509 kts 98°
2026-04-27 16:59 41.25014 68.30166 34946 ft 509 kts 98°
2026-04-27 17:00 41.23728 68.44205 34948 ft 509 kts 98°
2026-04-27 17:01 41.22860 68.53568 34945 ft 509 kts 99°
2026-04-27 17:01 41.21986 68.62926 34942 ft 510 kts 99°
2026-04-27 17:02 41.21109 68.72232 34938 ft 510 kts 99°
2026-04-27 17:02 41.20219 68.81592 34938 ft 510 kts 99°
2026-04-27 17:03 41.19360 68.90971 34936 ft 511 kts 97°
2026-04-27 17:03 41.18991 69.00412 34946 ft 512 kts 93°
2026-04-27 17:04 41.18770 69.09883 34944 ft 512 kts 93°
2026-04-27 17:04 41.18531 69.19347 34950 ft 512 kts 94°
2026-04-27 17:05 41.17948 69.28728 34947 ft 511 kts 98°
2026-04-27 17:05 41.17175 69.38134 34943 ft 511 kts 98°
2026-04-27 17:06 41.16393 69.47537 34943 ft 511 kts 98°
2026-04-27 17:06 41.15612 69.56936 34955 ft 512 kts 98°
2026-04-27 17:07 41.14825 69.66342 34978 ft 512 kts 98°
2026-04-27 17:07 41.14029 69.75746 34976 ft 512 kts 98°
2026-04-27 17:08 41.13228 69.85143 34988 ft 512 kts 98°
2026-04-27 17:08 41.12420 69.94544 35004 ft 513 kts 98°
2026-04-27 17:09 41.11604 70.03945 35007 ft 513 kts 98°
2026-04-27 17:09 41.10777 70.13346 35012 ft 512 kts 99°
2026-04-27 17:10 41.10183 70.22780 35021 ft 514 kts 94°
2026-04-27 17:10 41.10365 70.32223 35014 ft 515 kts 86°
2026-04-27 17:11 41.11058 70.41701 35023 ft 515 kts 85°
2026-04-27 17:11 41.12127 70.55905 35021 ft 515 kts 85°
2026-04-27 17:12 41.13142 70.70115 35006 ft 515 kts 86°
2026-04-27 17:13 41.13801 70.79589 34996 ft 515 kts 86°
2026-04-27 17:13 41.14451 70.89067 34974 ft 515 kts 86°
2026-04-27 17:14 41.15095 70.98553 34977 ft 515 kts 86°
2026-04-27 17:14 41.15732 71.08025 34967 ft 515 kts 86°
2026-04-27 17:15 41.16357 71.17448 34954 ft 515 kts 86°
2026-04-27 17:15 41.16980 71.26941 34944 ft 515 kts 86°
2026-04-27 17:16 41.17594 71.36424 34932 ft 514 kts 86°
2026-04-27 17:16 41.18199 71.45903 34931 ft 515 kts 86°
2026-04-27 17:17 41.18798 71.55385 34925 ft 515 kts 86°
2026-04-27 17:17 41.19387 71.64857 34925 ft 514 kts 86°
2026-04-27 17:18 41.20256 71.79025 34922 ft 514 kts 86°
2026-04-27 17:18 41.20821 71.88507 34930 ft 514 kts 86°
2026-04-27 17:19 41.21377 71.97981 34936 ft 514 kts 86°
2026-04-27 17:19 41.21928 72.07449 34934 ft 514 kts 86°
2026-04-27 17:20 41.22472 72.16926 34943 ft 513 kts 86°
2026-04-27 17:20 41.23009 72.26404 34954 ft 513 kts 86°
2026-04-27 17:21 41.23545 72.35872 34939 ft 511 kts 86°
2026-04-27 17:21 41.24068 72.45250 34954 ft 511 kts 86°
2026-04-27 17:22 41.24587 72.54680 34975 ft 511 kts 87°
2026-04-27 17:22 41.25014 72.62581 34973 ft 510 kts 87°
2026-04-27 17:23 41.25504 72.71932 34995 ft 509 kts 87°
2026-04-27 17:23 41.25987 72.81332 35014 ft 509 kts 87°
2026-04-27 17:24 41.26466 72.90751 35009 ft 509 kts 87°
2026-04-27 17:24 41.26939 73.00141 35022 ft 508 kts 88°
2026-04-27 17:25 41.27401 73.09519 35037 ft 507 kts 88°
2026-04-27 17:25 41.27854 73.18893 35031 ft 507 kts 88°
2026-04-27 17:26 41.28301 73.28266 35053 ft 507 kts 88°
2026-04-27 17:26 41.28735 73.37604 35051 ft 509 kts 88°
2026-04-27 17:27 41.29171 73.47027 35063 ft 510 kts 88°
2026-04-27 17:27 41.29599 73.56459 35057 ft 509 kts 88°
2026-04-27 17:28 41.30018 73.65881 35063 ft 509 kts 88°
2026-04-27 17:29 41.30635 73.80048 35053 ft 511 kts 88°
2026-04-27 17:29 41.31037 73.89519 35052 ft 511 kts 88°
2026-04-27 17:30 41.31432 73.98992 35043 ft 511 kts 87°
2026-04-27 17:30 41.32396 74.13116 35048 ft 513 kts 85°
2026-04-27 17:31 41.33082 74.22580 35052 ft 513 kts 85°
2026-04-27 17:31 41.33757 74.32044 35044 ft 512 kts 85°
2026-04-27 17:32 41.34744 74.46190 35045 ft 514 kts 85°
2026-04-27 17:33 41.35400 74.55686 35042 ft 515 kts 85°
2026-04-27 17:33 41.36045 74.65198 35037 ft 515 kts 86°
2026-04-27 17:34 41.36684 74.74705 35028 ft 514 kts 86°
2026-04-27 17:34 41.37314 74.84207 35039 ft 515 kts 86°
2026-04-27 17:35 41.37934 74.93724 35037 ft 515 kts 86°
2026-04-27 17:35 41.38546 75.03245 35026 ft 515 kts 86°
2026-04-27 17:36 41.39150 75.12761 34996 ft 513 kts 86°
2026-04-27 17:36 41.39744 75.22185 35004 ft 513 kts 86°
2026-04-27 17:37 41.40334 75.31683 35008 ft 513 kts 86°
2026-04-27 17:37 41.40916 75.41182 35005 ft 513 kts 86°
2026-04-27 17:38 41.41492 75.50695 35011 ft 514 kts 86°
2026-04-27 17:38 41.42055 75.60131 35011 ft 514 kts 86°
2026-04-27 17:39 41.42614 75.69639 35015 ft 514 kts 86°
2026-04-27 17:39 41.43163 75.79155 35009 ft 514 kts 86°
2026-04-27 17:40 41.43707 75.88677 35008 ft 515 kts 86°
2026-04-27 17:40 41.44242 75.98204 35019 ft 515 kts 87°
2026-04-27 17:41 41.44771 76.07740 35040 ft 515 kts 87°
2026-04-27 17:41 41.45292 76.17277 35031 ft 515 kts 87°
2026-04-27 17:42 41.45806 76.26810 35054 ft 515 kts 87°
2026-04-27 17:42 41.46311 76.36346 35068 ft 515 kts 87°
2026-04-27 17:43 41.46809 76.45882 35069 ft 515 kts 87°
2026-04-27 17:43 41.47299 76.55423 35079 ft 515 kts 87°
2026-04-27 17:44 41.47782 76.64970 35099 ft 515 kts 87°
2026-04-27 17:44 41.48256 76.74522 35095 ft 515 kts 87°
2026-04-27 17:45 41.48723 76.84073 35116 ft 515 kts 87°
2026-04-27 17:45 41.49181 76.93636 35110 ft 516 kts 87°
2026-04-27 17:46 41.49633 77.03202 35126 ft 516 kts 88°
2026-04-27 17:46 41.50075 77.12710 35140 ft 516 kts 88°
2026-04-27 17:47 41.50510 77.22280 35140 ft 516 kts 88°
2026-04-27 17:47 41.50937 77.31840 35151 ft 515 kts 88°
2026-04-27 17:48 41.51357 77.41408 35160 ft 515 kts 88°
2026-04-27 17:48 41.51768 77.50961 35160 ft 515 kts 88°
2026-04-27 17:49 41.52169 77.60518 35174 ft 514 kts 88°
2026-04-27 17:49 41.52565 77.70095 35181 ft 516 kts 88°
2026-04-27 17:50 41.52955 77.79676 35179 ft 516 kts 88°
2026-04-27 17:50 41.53521 77.93983 35189 ft 516 kts 88°
2026-04-27 17:51 41.53883 78.03545 35191 ft 515 kts 87°
2026-04-27 17:51 41.54246 78.13137 35197 ft 515 kts 87°
2026-04-27 17:52 41.54601 78.22720 35191 ft 515 kts 87°
2026-04-27 17:52 41.54889 78.30689 35195 ft 515 kts 87°
2026-04-27 17:53 41.55281 78.41808 35194 ft 515 kts 88°
2026-04-27 17:53 41.55610 78.51382 35194 ft 515 kts 88°
2026-04-27 17:54 41.55930 78.60958 35193 ft 515 kts 88°
2026-04-27 17:54 41.56243 78.70520 35187 ft 515 kts 88°
2026-04-27 17:55 41.56548 78.80115 35171 ft 516 kts 88°
2026-04-27 17:55 41.56900 78.89704 35156 ft 516 kts 86°
2026-04-27 17:56 41.57328 78.99289 35128 ft 516 kts 86°
2026-04-27 17:56 41.57746 79.08877 35127 ft 516 kts 86°
2026-04-27 17:57 41.58151 79.18461 35098 ft 516 kts 86°
2026-04-27 17:57 41.58543 79.27982 35070 ft 516 kts 86°
2026-04-27 17:58 41.58929 79.37577 35074 ft 516 kts 86°
2026-04-27 17:58 41.59306 79.47163 35049 ft 516 kts 86°
2026-04-27 17:59 41.59676 79.56749 35051 ft 516 kts 87°
2026-04-27 17:59 41.60037 79.66340 35049 ft 516 kts 87°
2026-04-27 18:00 41.60391 79.75931 35070 ft 516 kts 87°
2026-04-27 18:00 41.60737 79.85524 35070 ft 516 kts 87°
2026-04-27 18:01 41.61074 79.95130 35083 ft 515 kts 87°
2026-04-27 18:01 41.61404 80.04712 35093 ft 516 kts 87°
2026-04-27 18:02 41.61726 80.14301 35093 ft 515 kts 87°
2026-04-27 18:02 41.62038 80.23889 35097 ft 515 kts 87°
2026-04-27 18:03 41.62342 80.33404 35088 ft 515 kts 87°
2026-04-27 18:03 41.62640 80.42998 35047 ft 515 kts 87°
2026-04-27 18:04 41.62931 80.52595 35040 ft 515 kts 87°
2026-04-27 18:04 41.63210 80.62196 35036 ft 515 kts 87°
2026-04-27 18:05 41.63487 80.71781 35034 ft 515 kts 87°
2026-04-27 18:05 41.63756 80.81382 35026 ft 515 kts 87°
2026-04-27 18:06 41.64014 80.90906 35029 ft 515 kts 87°
2026-04-27 18:06 41.64260 81.00485 35018 ft 514 kts 87°
2026-04-27 18:07 41.64506 81.10068 35013 ft 514 kts 87°
2026-04-27 18:07 41.64746 81.19636 35008 ft 514 kts 87°
2026-04-27 18:08 41.64979 81.29194 35005 ft 513 kts 86°
2026-04-27 18:08 41.65197 81.38672 35000 ft 510 kts 86°
2026-04-27 18:09 41.65415 81.48169 35003 ft 510 kts 86°
2026-04-27 18:09 41.65624 81.57667 34995 ft 510 kts 86°
2026-04-27 18:10 41.65793 81.65623 34999 ft 510 kts 86°
2026-04-27 18:10 41.65983 81.75098 34994 ft 507 kts 86°
2026-04-27 18:11 41.66169 81.84538 34983 ft 507 kts 86°
2026-04-27 18:11 41.66346 81.93921 34982 ft 507 kts 86°
2026-04-27 18:12 41.66515 82.03377 34971 ft 507 kts 86°
2026-04-27 18:12 41.66677 82.12819 34976 ft 507 kts 87°
2026-04-27 18:13 41.66831 82.22272 34968 ft 507 kts 87°
2026-04-27 18:13 41.66977 82.31722 34967 ft 507 kts 87°
2026-04-27 18:14 41.67116 82.41166 34980 ft 507 kts 87°
2026-04-27 18:14 41.67245 82.50595 34969 ft 506 kts 87°
2026-04-27 18:15 41.67370 82.60015 34975 ft 506 kts 87°
2026-04-27 18:15 41.67485 82.69388 34968 ft 506 kts 87°
2026-04-27 18:16 41.68158 82.78725 34971 ft 502 kts 77°
2026-04-27 18:16 41.70030 82.87695 34975 ft 497 kts 66°
2026-04-27 18:17 41.73025 82.95996 34978 ft 493 kts 56°
2026-04-27 18:17 41.76644 83.03784 34970 ft 492 kts 54°
2026-04-27 18:18 41.80307 83.11545 34971 ft 492 kts 54°
2026-04-27 18:18 41.83953 83.19333 34991 ft 491 kts 54°
2026-04-27 18:19 41.87575 83.27120 34972 ft 491 kts 55°
2026-04-27 18:19 41.91184 83.34912 34985 ft 491 kts 55°
2026-04-27 18:20 41.94797 83.42732 35001 ft 491 kts 55°
2026-04-27 18:20 41.98397 83.50544 35011 ft 491 kts 55°
2026-04-27 18:21 42.01989 83.58362 35047 ft 490 kts 55°
2026-04-27 18:21 42.05553 83.66140 35035 ft 490 kts 55°
2026-04-27 18:22 42.09134 83.73968 35029 ft 490 kts 55°
2026-04-27 18:22 42.12707 83.81795 35059 ft 490 kts 54°
2026-04-27 18:23 42.16283 83.89640 35062 ft 490 kts 55°
2026-04-27 18:23 42.19842 83.97486 35066 ft 489 kts 55°
2026-04-27 18:24 42.23575 84.05168 35084 ft 488 kts 52°
2026-04-27 18:24 42.27410 84.12724 35088 ft 487 kts 52°
2026-04-27 18:25 42.31251 84.20290 35100 ft 488 kts 52°
2026-04-27 18:25 42.35059 84.27812 35109 ft 487 kts 52°
2026-04-27 18:26 42.38888 84.35403 35108 ft 488 kts 52°
2026-04-27 18:26 42.42711 84.43000 35130 ft 487 kts 52°
2026-04-27 18:27 42.46529 84.50610 35126 ft 488 kts 52°
2026-04-27 18:27 42.50340 84.58232 35139 ft 488 kts 52°
2026-04-27 18:28 42.54150 84.65870 35140 ft 488 kts 52°
2026-04-27 18:28 42.57976 84.73552 35151 ft 489 kts 52°
2026-04-27 18:29 42.61785 84.81221 35152 ft 489 kts 52°
2026-04-27 18:29 42.65594 84.88908 35158 ft 489 kts 52°
2026-04-27 18:30 42.69399 84.96608 35158 ft 489 kts 52°
2026-04-27 18:30 42.73187 85.04297 35173 ft 490 kts 52°
2026-04-27 18:31 42.76985 85.12017 35152 ft 489 kts 52°
2026-04-27 18:31 42.80771 85.19737 35163 ft 489 kts 52°
2026-04-27 18:32 42.84551 85.27465 35175 ft 489 kts 52°
2026-04-27 18:32 42.88302 85.35155 35164 ft 489 kts 52°
2026-04-27 18:33 42.92073 85.42904 35179 ft 489 kts 52°
2026-04-27 18:33 42.95836 85.50654 35057 ft 490 kts 52°
2026-04-27 18:34 42.97716 85.54536 34802 ft 489 kts 53°
2026-04-27 18:34 42.99589 85.58408 34589 ft 486 kts 53°
2026-04-27 18:34 43.01455 85.62270 34346 ft 484 kts 53°
2026-04-27 18:34 43.03308 85.66111 34012 ft 483 kts 53°
2026-04-27 18:35 43.05153 85.69939 33536 ft 482 kts 53°
2026-04-27 18:35 43.07003 85.73779 32927 ft 483 kts 53°
2026-04-27 18:35 43.08853 85.77622 32267 ft 483 kts 53°
2026-04-27 18:35 43.10708 85.81481 31576 ft 484 kts 53°
2026-04-27 18:36 43.12557 85.85334 30857 ft 485 kts 53°
2026-04-27 18:36 43.14411 85.89203 30116 ft 486 kts 54°
2026-04-27 18:36 43.16270 85.93090 29282 ft 487 kts 54°
2026-04-27 18:36 43.18131 85.96992 28503 ft 488 kts 54°
2026-04-27 18:37 43.19975 86.00831 27799 ft 486 kts 54°
2026-04-27 18:37 43.21843 86.04693 27332 ft 484 kts 54°
2026-04-27 18:37 43.23698 86.08528 26822 ft 480 kts 54°
2026-04-27 18:37 43.25541 86.12347 26249 ft 477 kts 54°
2026-04-27 18:38 43.27343 86.16151 25717 ft 472 kts 56°
2026-04-27 18:38 43.28967 86.20055 25205 ft 468 kts 60°
2026-04-27 18:38 43.30382 86.24069 24700 ft 466 kts 64°
2026-04-27 18:38 43.31613 86.28177 24175 ft 462 kts 66°
2026-04-27 18:39 43.32779 86.32275 23702 ft 458 kts 67°
2026-04-27 18:39 43.33924 86.36345 23120 ft 454 kts 67°
2026-04-27 18:39 43.35057 86.40374 22615 ft 449 kts 67°
2026-04-27 18:39 43.36181 86.44366 22117 ft 444 kts 67°
2026-04-27 18:40 43.37301 86.48340 21618 ft 441 kts 67°
2026-04-27 18:40 43.38404 86.52263 21104 ft 437 kts 67°
2026-04-27 18:40 43.39501 86.56157 20635 ft 434 kts 67°
2026-04-27 18:40 43.40576 86.59977 20152 ft 431 kts 67°
2026-04-27 18:41 43.41657 86.63818 19695 ft 427 kts 66°
2026-04-27 18:41 43.42847 86.67550 19188 ft 424 kts 63°
2026-04-27 18:41 43.44228 86.71129 18704 ft 422 kts 58°
2026-04-27 18:41 43.45783 86.74548 18177 ft 421 kts 55°
2026-04-27 18:42 43.47405 86.77896 17635 ft 418 kts 54°
2026-04-27 18:42 43.48500 86.80133 17291 ft 415 kts 54°
2026-04-27 18:42 43.50631 86.84509 16681 ft 411 kts 55°
2026-04-27 18:42 43.52215 86.87783 16215 ft 407 kts 55°
2026-04-27 18:43 43.53770 86.91024 15752 ft 404 kts 56°
2026-04-27 18:43 43.55311 86.94261 15288 ft 401 kts 56°
2026-04-27 18:43 43.56837 86.97473 14829 ft 399 kts 55°
2026-04-27 18:43 43.58355 87.00657 14375 ft 396 kts 55°
2026-04-27 18:44 43.59865 87.03823 13919 ft 393 kts 56°
2026-04-27 18:44 43.61362 87.06970 13470 ft 389 kts 56°
2026-04-27 18:44 43.62816 87.10041 13020 ft 385 kts 56°
2026-04-27 18:44 43.64272 87.13130 12542 ft 381 kts 57°
2026-04-27 18:45 43.65710 87.16186 12092 ft 378 kts 57°
2026-04-27 18:45 43.67142 87.19231 11649 ft 374 kts 57°
2026-04-27 18:45 43.68558 87.22239 11196 ft 371 kts 58°
2026-04-27 18:45 43.69956 87.25213 10905 ft 362 kts 58°
2026-04-27 18:46 43.71300 87.28079 10764 ft 347 kts 58°
2026-04-27 18:46 43.72589 87.30828 10643 ft 334 kts 58°
2026-04-27 18:46 43.73837 87.33485 10490 ft 322 kts 59°
2026-04-27 18:46 43.75036 87.36039 10381 ft 310 kts 59°
2026-04-27 18:47 43.76184 87.38506 10266 ft 299 kts 59°
2026-04-27 18:47 43.77292 87.40882 10153 ft 288 kts 59°
2026-04-27 18:47 43.78364 87.43178 10068 ft 278 kts 59°
2026-04-27 18:47 43.79372 87.45407 9952 ft 268 kts 63°
2026-04-27 18:48 43.80230 87.47673 9650 ft 263 kts 68°
2026-04-27 18:48 43.80949 87.49987 9370 ft 259 kts 69°
2026-04-27 18:48 43.81623 87.52243 9156 ft 254 kts 70°
2026-04-27 18:48 43.82293 87.54492 8914 ft 250 kts 70°
2026-04-27 18:49 43.82951 87.56701 8670 ft 246 kts 70°
2026-04-27 18:49 43.83600 87.58877 8415 ft 243 kts 70°
2026-04-27 18:49 43.84213 87.61048 8164 ft 240 kts 74°
2026-04-27 18:49 43.84715 87.63230 7942 ft 235 kts 77°
2026-04-27 18:50 43.85176 87.65390 7706 ft 231 kts 77°
2026-04-27 18:50 43.85627 87.67518 7482 ft 228 kts 77°
2026-04-27 18:50 43.86071 87.69611 7279 ft 224 kts 78°
2026-04-27 18:50 43.86512 87.71706 6816 ft 228 kts 77°
2026-04-27 18:51 43.86956 87.73824 6367 ft 228 kts 77°
2026-04-27 18:51 43.87399 87.75919 5928 ft 225 kts 77°
2026-04-27 18:51 43.87884 87.77971 5452 ft 223 kts 67°
2026-04-27 18:51 43.88915 87.79503 5214 ft 214 kts 33°
2026-04-27 18:52 43.90286 87.80051 5081 ft 202 kts
2026-04-27 18:52 43.91603 87.79739 4942 ft 190 kts 346°
2026-04-27 18:52 43.92844 87.79216 4833 ft 184 kts 343°
2026-04-27 18:53 43.95310 87.78147 4904 ft 186 kts 344°
2026-04-27 18:53 43.96550 87.77596 4903 ft 188 kts 332°
2026-04-27 18:53 43.97545 87.76462 4894 ft 185 kts 303°
2026-04-27 18:53 43.97948 87.74811 4904 ft 181 kts 270°
2026-04-27 18:54 43.97812 87.73100 4911 ft 177 kts 256°
2026-04-27 18:54 43.97522 87.71447 4907 ft 176 kts 251°
2026-04-27 18:54 43.97188 87.69812 4901 ft 176 kts 247°
2026-04-27 18:54 43.96832 87.68173 4821 ft 178 kts 246°
2026-04-27 18:55 43.96480 87.66560 4575 ft 169 kts 246°
2026-04-27 18:55 43.96262 87.65541 4418 ft 163 kts 247°
2026-04-27 18:55 43.95943 87.64044 4212 ft 161 kts 247°
2026-04-27 18:55 43.95623 87.62548 4022 ft 162 kts 246°
2026-04-27 18:56 43.95297 87.61047 3822 ft 162 kts 251°
2026-04-27 18:56 43.94992 87.59537 3620 ft 162 kts 248°
2026-04-27 18:56 43.94678 87.58041 3414 ft 160 kts 250°
2026-04-27 18:56 43.94367 87.56563 3200 ft 158 kts 250°
2026-04-27 18:57 43.94049 87.55103 2987 ft 158 kts 247°
2026-04-27 18:57 43.93737 87.53634 2758 ft 158 kts 252°
2026-04-27 18:57 43.93435 87.52159 2515 ft 159 kts 253°
2026-04-27 18:57 43.93124 87.50689 2345 ft 159 kts 254°
2026-04-27 18:58 43.92806 87.49216 2155 ft 159 kts 252°
2026-04-27 18:58 43.92529 87.47935 2145 ft 109 kts 254°
2026-04-27 18:58 43.92382 87.47222 2142 ft 51 kts 253°
2026-04-27 18:58 43.92261 87.46764 2142 ft 50 kts 238°
2026-04-27 18:59 43.92151 87.46587 2144 ft 2 kts 223°
2026-04-27 18:59 43.92121 87.46550 2143 ft 13 kts 221°
2026-04-27 18:59 43.92027 87.46454 2144 ft 19 kts 190°
2026-04-27 18:59 43.91893 87.46488 2144 ft 22 kts 163°
2026-04-27 19:00 43.91644 87.46591 2143 ft 43 kts 163°
2026-04-27 19:00 43.91366 87.46705 2144 ft 39 kts 163°
2026-04-27 19:00 43.91106 87.46812 2144 ft 39 kts 163°
2026-04-27 19:00 43.90919 87.46889 2144 ft 14 kts 161°
2026-04-27 19:01 43.90868 87.46993 2144 ft 15 kts 101°
2026-04-27 19:01 43.90886 87.47102 2144 ft 13 kts 71°
2026-04-27 19:01 43.90919 87.47237 2144 ft 17 kts 72°
2026-04-27 19:01 43.90960 87.47404 2142 ft 20 kts 69°
2026-04-27 19:02 43.90992 87.47561 2144 ft 18 kts 72°
2026-04-27 19:02 43.91029 87.47744 2144 ft 21 kts 77°
2026-04-27 19:02 43.91071 87.47952 2144 ft 24 kts 71°
2026-04-27 19:02 43.91133 87.48227 2144 ft 38 kts 72°
2026-04-27 19:03 43.91194 87.48510 2144 ft 11 kts 69°
2026-04-27 19:03 43.91225 87.48629 2144 ft 15 kts 73°
2026-04-27 19:03 43.91257 87.48785 2144 ft 18 kts 72°
2026-04-27 19:03 43.91280 87.48904 2144 ft 20 kts 77°
2026-04-27 19:04 43.91312 87.49140 2144 ft 16 kts 106°
2026-04-27 19:04 43.91289 87.49205 2144 ft 0 kts 118°
2026-04-27 19:04 43.91279 87.49224 2144 ft 9 kts 135°
2026-04-27 19:04 43.91215 87.49287 2143 ft 16 kts 146°
2026-04-27 19:05 43.91114 87.49368 2144 ft 18 kts 144°
2026-04-27 19:05 43.91004 87.49441 2144 ft 15 kts 154°
2026-04-27 19:05 43.90943 87.49465 2142 ft 4 kts 157°
2026-04-27 19:05 43.90925 87.49482 2144 ft 2 kts 132°
2026-04-27 19:06 43.90921 87.49489 2144 ft 0 kts 127°
2026-04-27 19:06 43.90917 87.49551 2144 ft 8 kts 82°
2026-04-27 19:07 43.90928 87.49641 2144 ft 11 kts 83°
2026-04-27 19:07 43.90925 87.49755 2144 ft 13 kts 108°
2026-04-27 19:07 43.90897 87.49782 2144 ft 3 kts 179°
2026-04-27 19:07 43.90853 87.49834 2144 ft 10 kts 107°
2026-04-27 19:08 43.90855 87.49929 2143 ft 7 kts 79°
2026-04-27 19:08 43.90844 87.49998 2144 ft 7 kts 131°
2026-04-27 19:08 43.90815 87.50023 2143 ft 6 kts 156°
2026-04-27 19:08 43.90787 87.50038 2143 ft 0 kts 160°